CST,Max TemperatureF,Mean TemperatureF,Min TemperatureF,Max Dew PointF,MeanDew PointF,Min DewpointF,Max Humidity, Mean Humidity, Min Humidity, Max Sea Level PressureIn, Mean Sea Level PressureIn, Min Sea Level PressureIn, Max VisibilityMiles, Mean VisibilityMiles, Min VisibilityMiles, Max Wind SpeedMPH, Mean Wind SpeedMPH, Max Gust SpeedMPH,PrecipitationIn, CloudCover, Events, WindDirDegrees
2013-2-1,0,-6,-13,-8,-13,-17,85,66,51,30.17,30.10,30.03,10,10,5,13,6,16,0.00,2,Snow,261
2013-2-2,12,4,-4,-2,-6,-9,78,67,48,30.07,30.02,29.92,10,10,5,8,1,,0.00,4,Snow,302
2013-2-3,14,5,-4,1,-2,-8,85,69,45,29.96,29.90,29.84,10,9,2,14,3,20,0.00,5,Snow,308
2013-2-4,17,4,-9,-2,-6,-15,92,63,35,29.96,29.91,29.81,10,10,7,7,1,,0.00,2,,267
2013-2-5,21,8,-5,18,7,-9,93,80,57,30.05,29.81,29.64,10,7,1,12,3,17,0.01,6,Snow,278
2013-2-6,21,4,-13,19,5,-18,93,85,68,30.14,30.08,30.04,10,6,0,10,1,16,0.00,6,Fog-Snow,140
2013-2-7,26,24,21,25,22,16,100,91,80,30.18,30.06,30.01,10,7,2,14,5,22,0.00,8,Snow,50
2013-2-8,26,13,0,16,7,-6,92,74,40,30.34,30.29,30.19,10,10,10,13,5,18,0.00,1,,20
2013-2-9,23,8,-7,23,8,-11,100,86,73,30.32,30.17,30.01,10,7,0,12,2,16,0.00,5,Snow,174
2013-2-10,33,28,23,34,28,21,100,97,86,30.02,29.65,29.27,10,4,0,13,6,18,0.34,8,Rain-Snow,125
2013-2-11,33,28,23,34,26,18,100,89,74,29.91,29.54,29.24,10,7,1,21,8,28,0.00,8,Rain-Snow,289
2013-2-12,24,15,6,18,14,3,100,81,68,29.96,29.88,29.75,10,9,2,14,7,17,0.00,5,Snow,265
2013-2-13,33,19,5,30,21,1,100,87,69,29.75,29.66,29.60,10,7,1,8,1,,0.00,7,Snow,232
2013-2-14,30,22,15,30,22,9,100,82,68,30.01,29.75,29.57,10,6,1,16,6,24,0.01,8,Snow,353
2013-2-15,19,10,0,9,4,-4,85,70,53,30.16,30.10,30.02,10,10,10,12,5,18,0.00,5,,318
2013-2-16,14,-1,-16,0,-9,-22,92,72,45,30.13,30.11,30.08,10,10,2,9,1,,0.00,2,,359
2013-2-17,23,0,-22,10,-7,-27,84,61,39,30.13,30.02,29.84,10,10,10,10,2,17,0.00,1,,165
2013-2-18,33,26,19,30,21,10,100,78,64,29.83,29.57,29.44,10,8,2,16,7,21,0.00,5,Snow,177
2013-2-19,28,16,5,25,2,-4,86,68,52,30.11,29.82,29.47,10,7,2,21,14,29,0.00,6,Snow,324
2013-2-20,23,14,3,5,3,0,85,67,46,30.37,30.28,30.12,10,10,10,16,10,28,0.00,2,,356
2013-2-21,28,10,-9,19,5,-15,92,72,51,30.44,30.31,30.11,10,10,10,17,2,24,0.00,2,,82
2013-2-22,28,22,17,25,21,16,100,88,80,30.11,29.87,29.77,10,4,0,13,8,21,0.02,8,Snow,76
2013-2-23,30,24,17,27,21,16,100,87,69,29.87,29.78,29.74,10,8,1,9,3,,0.00,8,Snow,279
2013-2-24,32,29,26,25,22,18,93,74,60,30.08,30.01,29.87,10,10,10,8,3,,0.00,7,Snow,281
2013-2-25,32,23,14,27,23,12,100,88,80,30.11,30.08,30.05,10,8,2,5,0,,0.00,7,Snow,207
2013-2-26,32,28,23,27,24,19,93,79,69,30.06,29.92,29.80,10,9,5,18,6,26,0.00,7,,62
2013-2-27,32,30,28,28,26,23,93,82,75,29.86,29.77,29.73,10,7,1,20,13,28,0.00,8,Snow,24
2013-2-28,30,26,21,27,19,12,93,72,55,30.17,30.03,29.87,10,10,10,18,12,24,0.00,8,,27